Время (UTC), дата Ветер
(°,м/с) 
Видим.   Явления Облачность Т
(°С)
Тd
(°С)
f(%) Тe
(°С)
Pmin
(гПа)
dP
(гПа)
Po
(мм)
O2
(г/м3)
Тmin Tmax R s Состояние
почвы
00 01.01.12 тихо ()   >10 км    1/0 средняя 
[Ac lent]
-28.8 -30.6 84 -29  1030.9  0.4  765  346        20  равномерный
сухой снег
100% 
03 01.01.12 тихо ()   >10 км    ясно 
-20.4 -22.3 85 -20  1030  -0.5  764  335           
06 01.01.12 180 (Ю) >10 км    3/0 средняя 
[Ac lent]
-16.7 -21.7 65 -17  1028.7  -1.1  764  329           
09 01.01.12 тихо ()   >10 км    ясно 
-23 -24.9 84 -23  1029.6  0.5  764  338    -14.8       
12 01.01.12 270 (З) >10 км    ясно 
-28.8 -29.9 89 -29  1029.8  764  346    -14.8       
15 01.01.12 тихо ()   >10 км    ясно 
-29.2 -30.3 89 -29  1028.9  -0.9  763  346           
18 01.01.12 тихо ()   >10 км    ясно 
-30.1 -31.3 90 -30  1029.5  0.6  764  348           
21 01.01.12 290 (З) >10 км    ясно 
-33.2 -35 84 -34  1028.7  -1.1  763  352           
00 02.01.12 290 (З) >10 км    ясно 
-31.1 -32.8 85 -32  1028.9  0.5  763  349  -33.4      20  равномерный
сухой снег
100% 
06 02.01.12 230 (ЮЗ) >10 км    ясно 
-18.2 -23.2 65 -18  1027.1  -1  762  331           
09 02.01.12 тихо ()   >10 км    ясно 
-23.6 -26.2 79 -24  1027.6  0.4  763  338    -16.2       
12 02.01.12 тихо ()   >10 км    ясно 
-28 -29.8 85 -28  1027.8  763  344    -16.2       
15 02.01.12 тихо ()   >10 км    ясно 
-29.5 -30.7 91 -30  1026.9  -0.9  762  346           
18 02.01.12 тихо ()   >10 км    ясно 
-31.1 -32.8 85 -31  1026.9  762  348           
21 02.01.12 тихо ()   >10 км    ясно 
-32.1 -33.7 86 -32  1026.3  -0.6  761  350           
00 03.01.12 тихо ()   >10 км    ясно 
-31.1 -32.8 85 -31  1026.3  761  348  -32.4      20  равномерный
сухой снег
100% 
03 03.01.12 тихо ()   10 км    ясно 
-18.5 -22.6 70 -19  1024.5  -1.3  760  330           
06 03.01.12 230 (ЮЗ) >10 км    ясно 
-17.3 -22.3 65 -17  1023.6  -1.1  760  328           
09 03.01.12 тихо ()   >10 км    ясно 
-23.7 -26.3 79 -24  1023.2  -0.4  759  337    -15.7       
12 03.01.12 360 (С) >10 км    ясно 
-26.9 -28.1 90 -28  1023.1  -0.1  759  341    -15.7       
15 03.01.12 тихо ()   >10 км    ясно 
-28.5 -29.8 90 -29  1022.6  -0.7  759  343           
18 03.01.12 тихо ()   >10 км    ясно 
-30.2 -31.3 90 -30  1021.8  -0.8  758  345           
21 03.01.12 тихо ()   >10 км    ясно 
-32.1 -33.7 86 -32  1020.4  -1.4  757  348           
00 04.01.12 290 (З) >10 км    ясно 
-30.9 -32.6 85 -32  1020.6  0.2  757  346  -31.9      20  равномерный
сухой снег
100% 
03 04.01.12 тихо ()   >10 км    ясно 
-17.3 -21.5 70 -17  1017.9  -2.1  756  327           
06 04.01.12 230 (ЮЗ) >10 км    1/0 средняя 
[Ac trans]
-15.1 -20.2 65 -15  1017.7  -0.2  755  324           
12 04.01.12 270 (З) >10 км    1/0 средняя 
[Ac lent]
-23.6 -25.5 85 -24  1018.9  0.4  756  335    -14.2       
15 04.01.12 200 (Ю) >10 км    10/0 верхняя 
[Cs]
-22.8 -24.7 85 -23  1019.2  0.3  756  334           
18 04.01.12 тихо ()   >10 км    9/0 средняя, верхняя 
[Ac trans|Cs]
-24.1 -25.4 90 -24  1020.7  1.5  757  337           
21 04.01.12 тихо ()   10 км    10/0 средняя 
[Ac As]
-23.6 -24.9 89 -24  1021.6  0.9  758  336           
00 05.01.12 270 (З) >10 км  в посл. час снег  9/0 средняя, верхняя 
[Ac trans|Cs]
-20.5 -21.7 90 -21  1022.5  1.1  759  332  -25      20  равномерный
сухой снег
100% 
03 05.01.12 360 (С) 10 км  слаб. снег  9/0 средняя, верхняя 
[As op|Cs]
-14.7 -16.7 85 -15  1023  0.7  759  325           
06 05.01.12 250 (З) 4000 м  слаб. снег  10/0 средняя 
[As op]
-13.3 -15.3 85 -13  1023  759  323           
09 05.01.12 230 (ЮЗ) 4000 м  слаб. снег  10/0 средняя 
[As op]
-14.5 -15.8 90 -15  1023.7  0.7  760  325    -12.2       
12 05.01.12 тихо ()   4000 м  слаб. снег  10/0 верхняя 
[Cs]
-15.4 -16 95 -15  1024.5  0.8  761  326    -12.2  0.1     
15 05.01.12 тихо ()   4000 м  слаб. снег  10/0 верхняя 
[Cs]
-16.2 -16.8 95 -16  1024.5  761  327           
18 05.01.12 360 (С) 4000 м  слаб. снег  10/0 средняя 
[As op]
-16.1 -16.7 95 -16  1026  1.4  762  328           
21 05.01.12 290 (З) 4000 м  слаб. снег  10/0 средняя 
[As op]
-16.8 -17.4 95 -17  1027.2  1.2  763  329           
00 06.01.12 тихо ()   4000 м  слаб. снег  10/0 средняя 
[As op]
-16.8 -17.4 95 -17  1028.8  1.6  764  329  -17.7    0.3  20  равномерный
сухой снег
100% 
03 06.01.12 тихо ()   >10 км  в посл. час снег  10/0 средняя, верхняя 
[Ac lent|Cs]
-13.3 -16 80 -13  1029.2  0.4  764  325           
06 06.01.12 180 (Ю) >10 км  {снег}  10/0 верхняя 
[Cc]
-12.1 -15.6 75 -12  1028.7  -0.3  764  323           
09 06.01.12 230 (ЮЗ) >10 км    3/0 верхняя 
[Ci fib]
-16.5 -19.1 80 -17  1029.6  0.7  764  329    -11.7       
12 06.01.12 тихо ()   >10 км    ясно 
-21.9 -23.2 90 -22  1031.1  1.3  765  337    -11.7  0.0     
15 06.01.12 200 (Ю) >10 км    ясно 
-25 -26.2 89 -26  1031.7  0.4  766  341           
18 06.01.12 тихо ()   >10 км    ясно 
-27.3 -28.5 89 -27  1032  0.3  766  345           
21 06.01.12 тихо ()   >10 км    ясно 
-29.8 -30.9 90 -30  1032  -0.2  766  348           
00 07.01.12 020 (С) >10 км    ясно 
-28.1 -29.2 90 -29  1032.8  0.8  766  346  -29.8      20  равномерный
сухой снег
100% 
03 07.01.12 200 (Ю) >10 км    ясно 
-15.6 -19.8 70 -16  1031.5  -0.7  766  329           
06 07.01.12 тихо ()   >10 км    ясно 
-9.4 -15.7 60 -9  1029.7  -1.6  765  320           
09 07.01.12 230 (ЮЗ) >10 км    ясно 
-18.4 -21 80 -19  1029.9  -0.2  764  332    -8.8       
12 07.01.12 230 (ЮЗ) >10 км    ясно 
-22.8 -23.4 95 -23  1030.1  764  338    -8.8       
15 07.01.12 тихо ()   >10 км    ясно 
-25.2 -26.4 90 -25  1029.8  -0.3  764  341           
18 07.01.12 тихо ()   >10 км    ясно 
-28.8 -29.9 89 -29  1029.1  -0.9  764  346           
21 07.01.12 200 (Ю) >10 км    ясно 
-30.9 -32 89 -32  1028.1  -1  763  349           
00 08.01.12 тихо ()   >10 км    ясно средняя 
[Ac lent]
-30.4 -31.5 90 -30  1027.9  -0.2  763  348  -30.9      20  равномерный
сухой снег
100% 
03 08.01.12 160 (Ю) 10 км    3/0 средняя 
[Ac lent]
-15.5 -18.2 80 -16  1025.5  -1.8  761  327           
06 08.01.12 270 (З) >10 км    8/0 средняя, верхняя 
[Ac lent|Cc]
-11.4 -18.7 55 -16  1023.3  -1.9  760  321           
09 08.01.12 290 (З) >10 км    10/0 средняя 
[Ac As]
-14.1 -19.3 65 -18  1024.7  1.2  761  325    -11.2       
12 08.01.12 320 (СЗ) >10 км    ясно 
-16.6 -20.8 70 -19  1025.7  0.9  761  328    -11.2       
18 08.01.12 360 (С) >10 км    ясно 
-25.4 -27.8 79 -30  1028.5  1.6  763  341           
00 09.01.12 320 (СЗ) >10 км    1/0 средняя 
[Ac lent]
-25.1 -29 70 -26  1029.6  1.5  764  341  -27.5      20  равномерный
сухой снег
100% 
06 09.01.12 360 (С) >10 км    1/0 средняя 
[Ac lent]
-16.4 -25.6 45 -17  1028  -1  763  329           
12 09.01.12 360 (С) >10 км    8/0 верхняя 
[Ci fib]
-23.2 -28.8 60 -26  1029.4  764  338    -16.2       
15 09.01.12 360 (С) >10 км    3/0 верхняя 
[Ci fib]
-25.4 -30.9 60 -26  1029.7  0.3  764  341           
18 09.01.12 050 (СВ) >10 км    ясно 
-33.4 -36.3 73 -34  1030.2  764  353           
21 09.01.12 290 (З) >10 км    ясно 
-32.6 -35.5 75 -33  1029.8  -0.4  764  352           
00 10.01.12 270 (З) >10 км    ясно 
-33.6 -35.9 81 -35  1030.3  0.5  764  353  -35.8      20  равномерный
сухой снег
100% 
03 10.01.12 230 (ЮЗ) >10 км    ясно 
-22.2 -28 59 -25  1028.2  -1.4  763  337           
06 10.01.12 270 (З) >10 км    ясно 
-18.5 -27.5 45 -19  1026.9  -1.3  762  331           
09 10.01.12 290 (З) >10 км    ясно 
-26.1 -32.5 55 -27  1027.1  762  341    -17.8       
12 10.01.12 360 (С) >10 км    ясно 
-27.8 -33.3 60 -31  1027.5  0.2  762  344    -17.8       
15 10.01.12 360 (С) >10 км    ясно 
-30.6 -35.1 65 -34  1026.4  -1.1  761  348           
18 10.01.12 320 (СЗ) >10 км    ясно 
-32.1 -36.5 64 -38  1025.7  -0.6  761  350           
21 10.01.12 тихо ()   >10 км    ясно 
-34.1 -37.1 74 -34  1025.8  -0.2  761  352           
00 11.01.12 230 (ЮЗ) >10 км    ясно 
-35.2 -37.4 81 -36  1026.4  0.5  761  354  -36.6      20  равномерный
сухой снег
100% 
03 11.01.12 270 (З) >10 км    ясно 
-21.1 -27.8 54 -24  1025.2  -0.4  761  334           
06 11.01.12 250 (З) >10 км    1/0 верхняя 
[Cc]
-17 -26.1 45 -17  1023.7  -1.3  760  328           
09 11.01.12 230 (ЮЗ) >10 км    ясно 
-22.8 -29.4 55 -23  1024.3  0.2  760  336    -16.7       
12 11.01.12 270 (З) >10 км    ясно 
-22.2 -28 59 -27  1024.1  760  335    -16.7       
15 11.01.12 тихо ()   >10 км    4/0 верхняя 
[Ci fib]
-28.8 -32.6 70 -29  1024.5  760  344           
18 11.01.12 тихо ()   >10 км    10/0 верхняя 
[Cs]
-31.1 -33.4 80 -31  1023.5  -1  759  347           
21 11.01.12 тихо ()   >10 км    10/0 верхняя 
[Cs]
-30.3 -32.8 80 -30  1022.5  -1  759  346           
00 12.01.12 340 (С) 10 км    10/0 средняя, верхняя 
[Ac lent|Cs]
-30.7 -32.4 83 -31  1022.6  0.1  759  346  -31.1      20  равномерный
сухой снег
100% 
03 12.01.12 160 (Ю) 4000 м  дымка  ясно 
-22.6 -22.6 100 -23  1021.2  -1.2  758  335           
06 12.01.12 090 (В) 4000 м  дымка  ясно 
-20.7 -25.6 64 -21  1019.7  -1.3  757  332           
12 12.01.12 тихо ()   4000 м  дымка  ясно 
-30.3 -32.1 86 -30  1020.1  757  345    -20.5       
18 12.01.12 тихо ()   4000 м  дымка  ясно 
-32.9 -34.5 87 -33  1020  -0.4  757  349           
00 13.01.12 320 (СЗ) 4000 м  дымка  3/0 верхняя 
[Cc]
-33.8 -35.6 83 -35  1019.8  756  350  -35.3      20  равномерный
сухой снег
100% 
06 13.01.12 290 (З) >10 км    6/0 верхняя 
[Cc]
-18.4 -24.3 60 -19  1018.8  756  328           
09 13.01.12 320 (СЗ) >10 км    ясно 
-25.6 -28.8 75 -26  1019.3  0.3  756  338    -17.9       
12 13.01.12 290 (З) >10 км    ясно 
-24.4 -28.4 69 -25  1019.6  0.3  757  337    -17.9       
15 13.01.12 270 (З) >10 км    ясно 
-28.1 -30.5 79 -32  1018.8  -1  756  341           
18 13.01.12 250 (З) >10 км    ясно 
-31 -32.8 85 -35  1018.5  -0.3  756  345           
21 13.01.12 290 (З) >10 км    ясно 
-33.3 -35 84 -37  1017.5  -1.3  755  348           
00 14.01.12 250 (З) >10 км    ясно 
-33.6 -35.3 83 -38  1016.9  -0.6  754  349  -35.8      20  равномерный
сухой снег
100% 
03 14.01.12 270 (З) >10 км    ясно 
-18.7 -25.5 55 -23  1015  -1.1  753  328           
06 14.01.12 290 (З) >10 км    ясно 
-14.3 -23.7 45 -19  1013  -1.8  752  321           
09 14.01.12 290 (З) >10 км    ясно 
-19.8 -27.6 50 -24  1014.2  753  329    -14       
12 14.01.12 250 (З) >10 км    ясно 
-23 -28.7 59 -26  1014.4  753  333    -14       
15 14.01.12 250 (З) >10 км    ясно 
-31.7 -34.8 74 -33  1014.9  0.3  753  345           
18 14.01.12 тихо ()   >10 км    ясно 
-29.3 -32.4 74 -29  1014.9  753  342           
21 14.01.12 320 (СЗ) >10 км    ясно 
-28.2 -31.3 75 -29  1015.5  0.6  753  340           
00 15.01.12 250 (З) >10 км    ясно 
-27.2 -29 85 -28  1015.6  0.3  754  339  -32.4      20  равномерный
сухой снег
100% 
03 15.01.12 тихо ()   >10 км    ясно 
-15.1 -22.1 55 -15  1015.2  754  323           
06 15.01.12 360 (С) >10 км    ясно 
-13.8 -22 50 -16  1015.6  0.3  754  322           
09 15.01.12 290 (З) >10 км    ясно 
-18.3 -25.1 55 -22  1018.1  2.3  756  328    -12.6       
12 15.01.12 тихо ()   >10 км    ясно 
-24.7 -28.6 70 -25  1020  1.7  757  337    -12.6       
15 15.01.12 360 (С) >10 км    ясно 
-26.3 -29.4 75 -27  1020.6  0.6  757  340           
18 15.01.12 180 (Ю) >10 км    ясно 
-30 -33 75 -31  1022  1.2  758  345           
21 15.01.12 тихо ()   >10 км    ясно 
-33.4 -35 84 -33  1023.4  1.1  759  350           
00 16.01.12 тихо ()   >10 км    ясно 
-31.9 -33.7 86 -32  1024.4  1.3  760  349  -34.3      20  равномерный
сухой снег
100% 
06 16.01.12 160 (Ю) >10 км    ясно 
-16.5 -23.4 55 -17  1024.4  0.1  761  328           
09 16.01.12 090 (В) >10 км    ясно 
-21.5 -26.3 65 -22  1025.9  1.2  761  335    -15.6       
12 16.01.12 тихо ()   >10 км    ясно 
-26.8 -30 75 -27  1027.2  1.1  762  342    -15.6       
15 16.01.12 тихо ()   >10 км    ясно 
-30.3 -33.4 76 -30  1027.4  762  347           
18 16.01.12 тихо ()   >10 км    ясно 
-29.5 -31.3 85 -30  1027.6  0.2  762  346           
21 16.01.12 тихо ()   >10 км    ясно 
-34.9 -36.5 84 -35  1027.8  -0.1  762  354           
00 17.01.12 тихо ()   >10 км    9/0 средняя, верхняя 
[Ac trans|Cc]
-30.8 -32.6 85 -31  1027.4  -0.1  762  348  -34.9      20  равномерный
сухой снег
100% 
03 17.01.12 180 (Ю) >10 км    ясно 
-19.9 -24 70 -20  1026.3  -0.7  762  333           
06 17.01.12 200 (Ю) >10 км    ясно 
-15.6 -22.6 55 -16  1024.8  -1.2  761  327           
09 17.01.12 тихо ()   >10 км    ясно 
-22.7 -27.5 65 -23  1024.6  -0.6  760  336    -15.4       
12 17.01.12 200 (Ю) >10 км    ясно 
-28.6 -30.4 84 -29  1024.6  -0.2  760  344    -15.4       
15 17.01.12 тихо ()   >10 км    ясно 
-30.8 -32.6 85 -31  1024.7  0.1  760  347           
18 17.01.12 250 (З) >10 км    ясно 
-30 -31.7 84 -31  1024.7  760  346           
21 17.01.12 тихо ()   >10 км    ясно 
-32.2 -34 85 -32  1024.7  760  349           
00 18.01.12 250 (З) >10 км    1/0 средняя 
[Ac lent]
-28.6 -29.8 90 -29  1025.1  0.4  761  344  -32.3      20  равномерный
сухой снег
100% 
03 18.01.12 250 (З) >10 км    ясно 
-15.4 -21.4 60 -18  1025.1  0.6  761  327           
06 18.01.12 250 (З) >10 км    ясно 
-10.1 -19.8 45 -10  1024.9  761  320           
09 18.01.12 тихо ()   >10 км    ясно 
-18 -23.9 60 -18  1026.6  1.2  762  330    -9.8       
12 18.01.12 тихо ()   >10 км    ясно 
-23 -24.9 84 -23  1028.5  1.7  763  338    -9.8       
15 18.01.12 тихо ()   >10 км    ясно 
-26.1 -27.3 89 -26  1029.5  764  342           
18 18.01.12 тихо ()   >10 км    ясно 
-26.4 -27.6 90 -26  1031.1  1.6  765  343           
21 18.01.12 тихо ()   >10 км    ясно 
-25.9 -27.1 91 -26  1032.1  766  343           
00 19.01.12 110 (В) >10 км    ясно 
-25.3 -26.6 90 -26  1033.9  1.8  767  343  -27.4      20  равномерный
сухой снег
100% 
03 19.01.12 тихо ()   >10 км    ясно 
-15.1 -21.2 59 -15  1033.6  0.1  765  328           
06 19.01.12 180 (Ю) >10 км    ясно 
-12.9 -20.1 55 -13  1034.1  0.5  768  326           
09 19.01.12 тихо ()   >10 км    ясно 
-19.3 -24.2 65 -19  1035.9  1.5  769  335    -12.1       
12 19.01.12 тихо ()   >10 км    ясно 
-25.1 -26.9 85 -25  1037.1  770  343    -12.1       
15 19.01.12 тихо ()   >10 км    ясно 
-26.9 -28.7 84 -27  1038.1  770  346           
18 19.01.12 тихо ()   >10 км    ясно 
-28.2 -29.4 90 -28  1038.6  0.2  770  348           
21 19.01.12 тихо ()   >10 км    ясно 
-28.3 -29.4 90 -28  1038.2  -0.4  770  348           
00 20.01.12 тихо ()   10 км    10/0 средняя 
[Ac As]
-23.4 -24.6 90 -23  1037.8  -0.1  770  341  -28.1      20  равномерный
сухой снег
100% 
03 20.01.12 650 () 4000 м  слаб. снег  10/0 средняя, верхняя 
[As trans|Cs]
-18 -20.6 80 -18  1036.4  -1.2  769  333           
06 20.01.12 тихо ()   4000 м  слаб. снег  10/0 средняя, верхняя 
[As trans|Cs]
-16.1 -19.5 75 -16  1034.5  -1.6  768  330           
12 20.01.12 тихо ()   4000 м  слаб. снег  10/0 средняя, верхняя 
[As op|Cs]
-22.4 -23 94 -22  1032.7  -0.7  767  338    -15.7  0.2     
15 20.01.12 340 (С) 4000 м  слаб. снег  10/0 средняя 
[As op]
-24.2 -25.4 90 -25  1031.5  -1.4  765  340           
18 20.01.12 тихо ()   4000 м  слаб. снег  10/0 средняя 
[As op]
-24.1 -24.8 94 -24  1030.4  -1.1  765  340           
21 20.01.12 тихо ()   2000 м  слаб. снег  10/0 средняя, верхняя 
[As op|Cs]
-24.8 -26 90 -25  1029.6  -0.8  764  340           
00 21.01.12 тихо ()   2000 м  слаб. снег  10/0 средняя, верхняя 
[As trans|Cs]
-26.5 -27.7 90 -27  1029.2  -0.4  764  343  -27    0.3  20  равномерный
сухой снег
100% 
03 21.01.12 180 (Ю) 2000 м  слаб. снег  10/0 средняя, верхняя 
[As trans|Cs]
-16.4 -19 81 -17  1028.3  -0.5  763  329           
06 21.01.12 160 (Ю) 2000 м  слаб. снег  10/0 верхняя 
[Ci fib]
-15.4 -18.7 76 -18  1027.1  -1.2  762  327           
12 21.01.12 тихо ()   4000 м  слаб. снег  10/0 верхняя 
[Cs]
-20.5 -21.1 95 -21  1027.6  0.3  763  334    -14.1  0.3     
15 21.01.12 180 (Ю) 4000 м  слаб. снег  10/0 верхняя 
[Cs]
-26.9 -28.1 90 -28  1027.6  -0.2  763  343           
18 21.01.12 тихо ()   4000 м  слаб. снег  10/0 верхняя 
[Cs]
-29.2 -30.3 89 -29  1027.8  763  346           
21 21.01.12 тихо ()   10 км  {снег}  10/0 верхняя 
[Cs]
-32.2 -33.4 90 -32  1027.6  -0.2  762  350           
00 22.01.12 290 (З) >10 км  {снег}  6/0 средняя 
[Ac lent]
-33 -34.2 89 -34  1028  0.1  762  351  -33.1    0.0  20  равномерный
сухой снег
100% 
03 22.01.12 090 (В) 10 км    3/0 средняя 
[Ac lent]
-21.6 -23.4 85 -22  1026.5  -0.8  762  335           
06 22.01.12 140 (ЮВ) >10 км    ясно 
-18.6 -22.7 70 -19  1025.8  -0.7  761  331           
09 22.01.12 тихо ()   >10 км    ясно 
-24.3 -26.8 79 -24  1026.2  0.2  761  339    -17.9       
12 22.01.12 тихо ()   >10 км    ясно 
-27.6 -29.3 84 -28  1026.2  -0.2  761  343    -17.9       
15 22.01.12 тихо ()   >10 км    ясно 
-30.9 -32 89 -31  1025.5  -0.6  761  348           
18 22.01.12 тихо ()   >10 км    ясно 
-32.9 -33.9 92 -33  1025.2  -0.6  760  350           
21 22.01.12 тихо ()   >10 км    ясно 
-35.6 -37.1 86 -36  1023.7  -1.5  759  354           
00 23.01.12 270 (З) >10 км    ясно 
-33.8 -35.6 83 -35  1023.5  -0.2  759  351  -36.8      21  равномерный
сухой снег
100% 
03 23.01.12 тихо ()   >10 км    ясно 
-20.5 -24.6 70 -21  1021.4  -1.4  758  332           
06 23.01.12 320 (СЗ) >10 км    3/0 верхняя 
[Cc]
-16.5 -23.4 55 -17  1019.9  -1.3  757  326           
09 23.01.12 270 (З) >10 км    4/0 средняя 
[Ac lent]
-22.2 -27.1 65 -25  1020.7  0.6  758  334    -16.2       
12 23.01.12 270 (З) >10 км    ясно 
-28.1 -30.5 79 -32  1021.6  0.5  758  342    -16.2       
15 23.01.12 тихо ()   >10 км    ясно 
-31.2 -33 84 -31  1021.4  -0.2  758  347           
18 23.01.12 тихо ()   >10 км    ясно 
-32.4 -34.2 85 -32  1021.7  0.3  758  349           
21 23.01.12 тихо ()   >10 км    ясно 
-36.3 -37.8 89 -36  1021.4  -0.6  758  354           
00 24.01.12 тихо ()   >10 км    ясно 
-33.5 -35.3 83 -34  1021.1  -0.3  757  350  -36.8      21  равномерный
сухой снег
100% 
03 24.01.12 180 (Ю) >10 км    ясно 
-21.8 -25.8 70 -22  1018.5  -1.9  756  333           
06 24.01.12 250 (З) >10 км    ясно 
-17.4 -23.3 60 -20  1016.7  -1.6  755  326           
09 24.01.12 270 (З) >10 км    ясно 
-22.5 -27.3 64 -23  1016.3  -0.6  754  333    -16.6       
12 24.01.12 290 (З) >10 км    ясно 
-26.1 -28.6 79 -27  1015.2  -1.2  753  337           
15 24.01.12 250 (З) >10 км    ясно 
-28.7 -30.6 84 -29  1014  -1.4  752  341           
18 24.01.12 750 () >10 км    ясно 
-30.7 -32.4 83 -31  1012.7  -1.3  751  343           
21 24.01.12 230 (ЮЗ) >10 км    ясно 
-31.4 -32.4 91 -32  1010.2  -2.5  749  343           
00 25.01.12 250 (З) >10 км    3/0 верхняя 
[Cc]
-31.3 -33 84 -32  1010.2  749  343  -35.1      21  равномерный
сухой снег
100% 
03 25.01.12 270 (З) >10 км    8/0 верхняя 
[Cc]
-18.4 -24.3 60 -23  1009.4  0.4  749  325           
06 25.01.12 320 (СЗ) >10 км    6/0 верхняя 
[Cs]
-16.1 -23.1 55 -20  1009.6  0.4  749  323           
09 25.01.12 290 (З) >10 км    9/0 верхняя 
[Cc]
-20.8 -26.5 60 -26  1012.5  2.7  752  330    -15.9       
12 25.01.12 290 (З) >10 км    5/0 верхняя 
[Ci fib]
-24.1 -28.9 64 -30  1013.9  1.2  752  334    -15.9       
15 25.01.12 360 (С) >10 км    ясно 
-23.9 -27.9 70 -24  1015.4  1.5  754  335           
18 25.01.12 230 (ЮЗ) >10 км    ясно 
-28.4 -32.2 69 -29  1016.9  1.2  754  341           
21 25.01.12 250 (З) >10 км    4/0 верхняя 
[Ci fib]
-33.7 -35.9 81 -35  1018.4  1.2  755  349           
00 26.01.12 тихо ()   >10 км    1/0 верхняя 
[Cc]
-33.7 -35.3 83 -34  1020.1  1.7  757  350  -35.8         
03 26.01.12 230 (ЮЗ) >10 км    ясно 
-20.6 -26.4 60 -21  1020.2  0.8  757  332           
06 26.01.12 140 (ЮВ) >10 км    ясно 
-18.6 -25.4 55 -21  1020.2  757  329           
09 26.01.12 110 (В) >10 км    ясно 
-23.2 -28 64 -24  1021.6  1.2  758  336    -18.5       
12 26.01.12 290 (З) >10 км    ясно 
-32.3 -34.6 80 -33  1022.5  0.7  759  349    -18.5       
15 26.01.12 360 (С) >10 км    ясно 
-33.8 -35.6 83 -35  1022.5  -0.3  758  351           
18 26.01.12 050 (СВ) >10 км    ясно 
-35.1 -36.8 84 -36  1021.9  -0.6  758  352           
21 26.01.12 тихо ()   >10 км    ясно 
-35.2 -36.8 84 -35  1021  -0.9  757  352           
00 27.01.12 230 (ЮЗ) >10 км    8/0 средняя, верхняя 
[Ac lent|Cc]
-33.8 -35.6 83 -35  1020.3  -0.7  757  350  -37.2      21  равномерный
сухой снег
100% 
03 27.01.12 270 (З) >10 км    9/0 средняя, верхняя 
[Ac lent|Cc]
-20.1 -25 65 -20  1019.6  757  331           
06 27.01.12 250 (З) >10 км    9/0 средняя, верхняя 
[Ac As|Ci]
-17.8 -24.7 55 -20  1020.3  0.7  757  328           
09 27.01.12 250 (З) >10 км    1/0 средняя 
[Ac As]
-22.3 -29 54 -23  1023.2  2.9  759  335    -17.2       
12 27.01.12 тихо ()   >10 км    ясно 
-26.5 -30.4 70 -27  1026.2  2.7  761  342    -17.2       
15 27.01.12 360 (С) >10 км    ясно 
-31.5 -33.3 84 -32  1027.9  1.5  763  349           
18 27.01.12 тихо ()   >10 км    ясно 
-34.2 -35.9 85 -34  1030  1.8  764  354           
21 27.01.12 090 (В) >10 км    ясно 
-35.5 -37.1 83 -37  1031.1  1.1  765  356           
00 28.01.12 320 (СЗ) >10 км    1/0 средняя 
[Ac trans]
-31.6 -33.3 84 -32  1031.6  0.8  765  351  -35.7      21  равномерный
сухой снег
100% 
03 28.01.12 тихо ()   >10 км    5/0 средняя, верхняя 
[Ac lent|Ci]
-21 -25 70 -21  1031.7  0.5  766  336           
06 28.01.12 020 (С) >10 км    10/0 средняя 
[Ac As]
-18.8 -24.6 60 -19  1031.3  -0.4  765  333           
09 28.01.12 тихо ()   >10 км    10/0 средняя 
[As trans]
-19.1 -24 65 -19  1031.8  0.5  766  334    -18.4       
12 28.01.12 тихо ()   4000 м  слаб. снег  10/0 средняя 
[As trans]
-20.5 -23.8 75 -21  1031.5  -0.3  766  335    -18.4       
15 28.01.12 050 (СВ) 4000 м  слаб. снег  10/0 средняя 
[As trans]
-21 -22.9 84 -21  1031.4  -0.1  766  336           
18 28.01.12 190 (Ю) 96  <0100 м  слаб. снег  10/10 <0100 м 
[Ns]
-22.1 -24 85 -46  1031.4  766  337           
21 28.01.12 180 (Ю) 4000 м  слаб. снег  10/0 средняя 
[As op]
-21.6 -22.8 90 -22  1030.4  -1  765  336           
00 29.01.12 тихо ()   4000 м  слаб. снег  10/0 средняя 
[Ac As]
-21.6 -22.8 90 -22  1030.3  -0.1  765  336  -22.4    0.5  21  равномерный
сухой снег
100% 
03 29.01.12 180 (Ю) 4000 м  слаб. снег  10/0 верхняя 
[Cs]
-14.9 -18.3 75 -15  1029.4  -0.7  764  327           
06 29.01.12 230 (ЮЗ) 4000 м  слаб. снег  10/0 средняя 
[As op]
-14.5 -18 75 -17  1028  -1.4  763  326           
12 29.01.12 290 (З) 4000 м  слаб. снег  10/0 средняя 
[As op]
-19 -20.2 90 -19  1026.9  -0.5  762  332    -13.7  0.3     
15 29.01.12 200 (Ю) 4000 м  слаб. снег  10/0 средняя 
[As trans]
-19.8 -21 90 -20  1026.9  762  333           
18 29.01.12 230 (ЮЗ) 4000 м  слаб. снег  10/0 верхняя 
[Cs]
-22.8 -24 90 -23  1026  -1.1  761  336           
21 29.01.12 230 (ЮЗ) 4000 м  слаб. снег  10/0 верхняя 
[Cs]
-24.9 -26.2 89 -25  1025.3  -0.6  761  339           
00 30.01.12 230 (ЮЗ) 2000 м  слаб. снег  10/0 верхняя 
[Cs]
-22.8 -24 90 -23  1024.9  -0.4  761  336  -26.6    0.3  22  равномерный
сухой снег
100% 
03 30.01.12 200 (Ю) 4000 м  слаб. снег  10/0 средняя 
[Ac As]
-17.3 -20.7 75 -17  1023.3  -1.2  760  328           
06 30.01.12 180 (Ю) 4000 м  слаб. снег  10/0 средняя, верхняя 
[As op|Cs]
-15.8 -19.2 75 -18  1022.4  -0.9  759  326           
12 30.01.12 050 (СВ) 4000 м  дымка{снег}  8/0 средняя, верхняя 
[Ac trans|Ci fib]
-21.1 -22.3 90 -21  1023  0.2  759  333    -14.1  0.2     
15 30.01.12 050 (СВ) 4000 м  дымка  10/0 средняя, верхняя 
[Ac trans|Cs]
-22.8 -24 90 -23  1023.7  0.5  760  336           
18 30.01.12 тихо ()   4000 м  дымка  6/0 средняя, верхняя 
[Ac trans|Ci fib]
-24.1 -25.4 90 -24  1023.9  0.2  760  338           
21 30.01.12 тихо ()   4000 м  дымка  3/0 средняя 
[Ac trans]
-29.3 -30.5 89 -29  1024.5  0.4  760  345           
00 31.01.12 340 (С) 4000 м  дымка  ясно 
-29.5 -30.7 91 -30  1025.3  0.8  761  346  -31    0.0  22  равномерный
сухой снег
100% 
03 31.01.12 тихо ()   4000 м  дымка  3/0 верхняя 
[Ci fib]
-18.3 -20.9 80 -18  1024.9  761  330           
06 31.01.12 200 (Ю) >10 км    4/0 верхняя 
[Cc]
-15.6 -20.7 65 -18  1023.2  -1.5  760  326           
09 31.01.12 180 (Ю) >10 км    1/0 средняя 
[Ac lent]
-20.3 -23.6 75 -21  1023.4  760  332    -14.6       
12 31.01.12 200 (Ю) >10 км    ясно 
-27.6 -28.7 89 -28  1023.8  760  342    -14.6       
15 31.01.12 270 (З) >10 км    ясно 
-30.1 -31.3 90 -31  1023.8  760  346           
18 31.01.12 270 (З) >10 км    ясно 
-29.1 -30.3 89 -33  1022.4  -1.4  759  344           
21 31.01.12 180 (Ю) >10 км    5/0 средняя 
[As trans]
-29.2 -30.3 89 -30  1021.3  -1.1  758  344           
00 01.02.12 тихо ()   >10 км    4/0 средняя 
[Ac lent]
-28.3 -29.4 90 -28  1021.3  758  343  -30.6      22  равномерный
сухой снег
100% 
03 01.02.12 тихо ()   >10 км    1/0 средняя 
[Ac lent]
-16.4 -21.5 65 -16  1020.3  -0.4  757  326           
06 01.02.12 200 (Ю) >10 км    ясно 
-13.4 -20.5 55 -16  1018.7  -1.6  756  322           
09 01.02.12 250 (З) >10 км    3/0 средняя 
[Ac lent]
-18.1 -23.1 65 -21  1018.2  -0.7  756  328    -12.7       
12 01.02.12 тихо ()   >10 км    ясно 
-20.8 -24.8 70 -21  1018.6  0.4  756  331    -12.7       
15 01.02.12 270 (З) >10 км    ясно 
-26.2 -28.1 85 -27  1018  -0.8  755  339           
18 01.02.12 270 (З) >10 км    ясно 
-29.1 -30.3 89 -30  1017.8  -0.4  755  342           
21 01.02.12 тихо ()   >10 км    ясно 
-31.1 -32.2 89 -31  1016.4  -1.4  754  345           
00 02.02.12 270 (З) >10 км    ясно 
-23.2 -25.7 80 -26  1016  -0.2  754  334  -32.4      22  равномерный
сухой снег
100% 
03 02.02.12 180 (Ю) >10 км    ясно 
-14 -21.1 55 -14  1014.4  -1.1  753  321           
06 02.02.12 360 (С) >10 км    1/0 средняя 
[Ac lent]
-11.6 -20 50 -14  1012.9  -1.3  752  318           
09 02.02.12 290 (З) >10 км    1/0 средняя 
[Ac lent]
-15.8 -22.8 55 -21  1013.8  0.7  753  324    -10.3       
12 02.02.12 290 (З) >10 км    1/0 средняя 
[Ac lent]
-16.7 -22.7 60 -17  1014.5  0.7  753  325    -10.3       
15 02.02.12 090 (В) >10 км    10/0 верхняя 
[Cc]
-18.8 -23.7 65 -19  1014.7  753  328           
18 02.02.12 тихо ()   >10 км    10/0 верхняя 
[Cc]
-20.8 -24.8 70 -21  1014.3  -0.4  753  330           
21 02.02.12 тихо ()   >10 км    ясно 
-25.5 -27.3 84 -26  1013.9  -0.6  752  336           
00 03.02.12 тихо ()   >10 км    9/0 средняя, верхняя 
[Ac lent|Cc]
-21.1 -23.6 80 -21  1013.7  752  330  -27.7      22  равномерный
сухой снег
100% 
Время (UTC), дата Ветер
(°,м/с) 
Видим.   Явления Облачность Т
(°С)
Тd
(°С)
f(%) Тe
(°С)
Pmin
(гПа)
dP
(гПа)
Po
(мм)
O2
(г/м3)
Тmin Tmax R s Состояние
почвы